sat.trackr.live / text

‹ back to catalog

STARLINK-32034

NORAD 60297 · 2024-132V

PAYLOAD ACTIVE UNKNOWN

§ Identity

Operator
Country
US
Launch date
2024-07-28
Launch site
AFETR
Launch vehicle
Mass (kg)
RCS (m²)

Purposes: comms

External: N2YO · Heavens-Above · Gunter

§ Orbital elements

Epoch: 2026-05-25T04:12:21.308832Z

Period
94.01 min
Inclination
53.1611°
Eccentricity
0.0001188
Mean motion
15.31708673 rev/d
Perigee alt
469.9 km
Apogee alt
471.5 km
Semi-major
6,848.9 km
B*
4.0422e-5
RAAN
56.9521°
Arg perigee
83.9394°
Mean anomaly
276.1742°
Rev number
10,327

§ Raw data

STARLINK-320341 60297U 24132V   26145.17524663  .00000890  00000+0  40422-4 0  99902 60297  53.1611  56.9521 0001188  83.9394 276.1742 15.31708673103278

JSON: /api/v1/satellites/60297 · /tle

For live sub-satellite position, see the globe view (requires WebGL).

§ Visibility from observer

Set your observer location to see the next 7 days of passes ≥ 10°. The values pass through the URL so the page stays shareable.

No JS? Fill the form by hand. The geolocation button needs JavaScript.